1514584800.53,23072,5.44,72118.3,-13.95,-14.69,-14.69,0,*6A
1514584801.76,23073,5.44,72116.0,-13.95,-14.69,-14.65,0,*67
1514584803.0,23074,5.44,72112.5,-13.95,-14.69,-14.65,0,*60
1514584804.24,23075,5.44,72114.0,-13.95,-14.65,-14.69,0,*61
1514584805.47,23076,5.44,72116.3,-13.95,-14.65,-14.69,0,*62
1514584806.74,23077,5.44,72112.5,-13.95,-14.79,-14.65,0,*62
1514584808.01,23078,5.44,72114.0,-13.95,-14.79,-14.65,0,*6D
1514584809.25,23079,5.44,72114.3,-13.95,-14.69,-14.65,0,*6D
1514584810.49,23080,5.44,72112.5,-13.95,-14.65,-14.69,0,*6B
1514584811.73,23081,5.44,72114.3,-13.95,-14.65,-14.65,0,*66
1514584812.97,23082,5.44,72112.5,-13.95,-14.69,-14.65,0,*69
1514584814.26,23083,5.44,72116.5,-13.95,-14.79,-14.79,0,*64
1514584815.53,23084,5.44,72110.5,-13.99,-14.75,-14.83,0,*66
1514584816.76,23085,5.44,72112.8,-13.95,-14.65,-14.69,0,*6E
1514584818.01,23086,5.44,72110.8,-13.95,-14.65,-14.65,0,*61
1514584819.24,23087,5.44,72112.3,-13.95,-14.69,-14.69,0,*60
1514584820.51,23088,5.44,72108.5,-13.95,-14.55,-14.69,0,*60
1514584821.77,23089,5.44,72112.0,-13.95,-14.79,-14.69,0,*6F
1514584823.0,23090,5.44,72114.5,-13.95,-14.69,-14.69,0,*66
1514584824.27,23091,5.44,72112.0,-13.95,-14.79,-14.65,0,*6A
1514584825.53,23092,5.44,72110.5,-13.99,-14.75,-14.75,0,*68
1514584826.77,23093,5.44,72108.3,-13.95,-14.69,-14.65,0,*69
1514584828.01,23094,5.44,72108.5,-13.95,-14.69,-14.69,0,*62
1514584829.22,23095,5.44,72114.3,-13.93,-14.61,-14.65,0,*61
1514584830.49,23096,5.44,72106.8,-13.99,-14.83,-14.75,0,*65
1514584831.73,23097,5.44,72108.3,-13.95,-14.65,-14.69,0,*6D
1514584833.02,23098,5.44,72108.0,-13.95,-14.79,-14.79,0,*6E
1514584834.26,23099,5.44,72102.8,-13.95,-14.69,-14.69,0,*6F
1514584835.49,23100,5.44,72106.8,-13.95,-14.69,-14.65,0,*62
1514584836.76,23101,5.44,72106.8,-13.95,-14.79,-14.69,0,*6E
1514584837.99,23102,5.44,72108.8,-13.99,-14.69,-14.75,0,*6D
1514584839.24,23103,5.44,72104.8,-13.99,-14.83,-14.69,0,*65
1514584840.47,23104,5.44,72108.3,-13.95,-14.69,-14.69,0,*6A
1514584841.74,23105,5.44,72104.8,-13.99,-14.75,-14.83,0,*6E
1514584843.0,23106,5.44,72110.0,-13.99,-14.75,-14.75,0,*64
1514584844.24,23107,5.44,72106.0,-13.99,-14.69,-14.75,0,*68
1514584845.5,23108,5.44,72108.5,-13.99,-14.75,-14.83,0,*63
1514584846.77,23109,5.44,72106.0,-13.95,-14.69,-14.83,0,*63
1514584848.0,23110,5.44,72110.0,-13.99,-14.69,-14.79,0,*62
1514584849.24,23111,5.44,72108.5,-13.99,-14.75,-14.69,0,*6F
1514584850.51,23112,5.44,72108.5,-13.99,-14.75,-14.83,0,*68
1514584851.78,23113,5.44,72112.0,-13.99,-14.75,-14.75,0,*60
1514584853.01,23114,5.44,72114.3,-13.99,-14.69,-14.83,0,*63
1514584854.28,23115,5.44,72112.8,-13.95,-14.79,-14.69,0,*6B
1514584855.54,23116,5.44,72112.5,-13.99,-14.75,-14.75,0,*65
1514584856.78,23117,5.44,72112.3,-13.95,-14.69,-14.65,0,*64
1514584858.05,23118,5.44,72110.0,-13.99,-14.83,-14.75,0,*62
1514584859.29,23119,5.44,72112.5,-13.99,-14.69,-14.55,0,*65
1514584860.5,23120,5.44,72110.0,-13.99,-14.69,-14.69,0,*60
1514584861.76,23121,5.44,72112.8,-13.99,-14.75,-14.83,0,*68
1514584863.03,23122,5.44,72110.0,-13.99,-14.75,-14.75,0,*62
1514584864.29,23123,5.44,72110.0,-13.99,-14.75,-14.75,0,*63
1514584865.53,23124,5.44,72106.5,-13.99,-14.69,-14.75,0,*69
1514584866.77,23125,5.44,72112.3,-13.99,-14.75,-14.69,0,*68
1514584868.06,23126,5.44,72110.3,-14.01,-14.75,-14.75,0,*60
1514584869.32,23127,5.44,72108.8,-13.95,-14.79,-14.69,0,*6A
1514584870.59,23128,5.44,72108.5,-13.99,-14.75,-14.83,0,*61
1514584871.79,23129,5.44,72108.5,-13.99,-14.69,-14.69,0,*69
1514584873.06,23130,5.44,72114.0,-13.99,-14.75,-14.75,0,*61
1514584874.33,23131,5.44,72112.8,-13.99,-14.83,-14.75,0,*69
1514584875.6,23132,5.44,72108.8,-13.99,-14.83,-14.75,0,*6A
1514584876.87,23133,5.44,72108.3,-13.99,-14.83,-14.75,0,*6B
1514584878.11,23134,5.44,72108.5,-13.95,-14.69,-14.65,0,*65
1514584879.38,23135,5.44,72114.0,-13.99,-14.75,-14.83,0,*6D
1514584880.64,23136,5.44,72110.3,-13.99,-14.75,-14.75,0,*67
1514584881.94,23137,5.44,72108.3,-14.01,-14.75,-14.79,0,*6C
1514584883.2,23138,5.44,72110.5,-14.01,-14.69,-14.83,0,*6B
1514584884.47,23139,5.44,72108.8,-14.01,-14.83,-14.69,0,*6A
1514584885.68,23140,5.44,72112.0,-13.99,-14.69,-14.69,0,*66
1514584886.95,23141,5.44,72110.8,-13.95,-14.79,-14.65,0,*66
1514584888.23,23142,5.44,72112.0,-14.01,-14.75,-14.75,0,*62
1514584889.49,23143,5.44,72114.3,-14.01,-14.69,-14.75,0,*6E
1514584890.79,23144,5.44,72110.3,-14.01,-14.83,-14.75,0,*6D
1514584892.05,23145,5.44,72114.0,-14.03,-14.75,-14.79,0,*6B
1514584893.29,23146,5.44,72110.3,-13.99,-14.75,-14.69,0,*6D
1514584894.52,23147,5.44,72112.3,-14.01,-14.69,-14.69,0,*67
1514584895.76,23148,5.44,72110.3,-14.03,-14.79,-14.65,0,*67
1514584897.02,23149,5.44,72114.8,-14.01,-14.69,-14.75,0,*64
1514584898.3,23150,5.44,72110.3,-14.01,-14.75,-14.75,0,*61
1514584899.6,23151,5.44,72114.8,-14.01,-14.83,-14.75,0,*69
1514584900.89,23152,5.44,72108.3,-14.01,-14.83,-14.75,0,*6A
1514584902.13,23153,5.44,72108.3,-13.99,-14.75,-14.69,0,*69
1514584903.39,23154,5.44,72112.8,-14.01,-14.75,-14.69,0,*68
1514584904.65,23155,5.44,72114.0,-14.01,-14.69,-14.75,0,*69
1514584905.95,23156,5.44,72108.5,-14.01,-14.83,-14.75,0,*6E
1514584907.19,23157,5.44,72110.3,-13.99,-14.83,-14.69,0,*64
1514584908.43,23158,5.44,72110.0,-14.03,-14.89,-14.75,0,*68
1514584909.69,23159,5.44,72112.0,-14.01,-14.75,-14.69,0,*65
1514584910.96,23160,5.44,72110.8,-14.01,-14.83,-14.69,0,*66
1514584912.21,23161,5.44,72110.5,-14.01,-14.69,-14.75,0,*6E
1514584913.45,23162,5.44,72110.3,-14.01,-14.89,-14.69,0,*6E
1514584914.67,23163,5.44,72110.8,-14.03,-14.89,-14.65,0,*61
1514584915.94,23164,5.44,72110.5,-14.01,-14.83,-14.69,0,*62
1514584917.23,23165,5.44,72108.0,-14.01,-14.75,-14.75,0,*67
1514584918.49,23166,5.44,72110.8,-14.01,-14.75,-14.69,0,*69
1514584919.78,23167,5.44,72110.0,-14.01,-14.75,-14.75,0,*65
1514584921.04,23168,5.44,72114.0,-14.03,-14.79,-14.79,0,*68
1514584922.27,23169,5.44,72114.0,-14.03,-14.89,-14.75,0,*6A
1514584923.51,23170,5.44,72108.3,-14.03,-14.89,-14.75,0,*62
1514584924.78,23171,5.44,72110.8,-14.01,-14.83,-14.69,0,*66
1514584926.07,23172,5.44,72108.8,-14.01,-14.75,-14.75,0,*61
1514584927.33,23173,5.44,72112.5,-14.03,-14.79,-14.79,0,*62
1514584928.59,23174,5.44,72110.0,-14.03,-14.79,-14.75,0,*69
1514584929.85,23175,5.44,72110.0,-14.01,-14.75,-14.69,0,*6B
1514584931.08,23176,5.44,72110.5,-14.03,-14.75,-14.69,0,*6A
1514584932.35,23177,5.44,72108.5,-14.03,-14.79,-14.79,0,*66
1514584933.58,23178,5.44,72106.0,-14.03,-14.79,-14.89,0,*66
1514584934.84,23179,5.44,72108.8,-14.03,-14.79,-14.75,0,*64
1514584936.08,23180,5.44,72106.8,-14.03,-14.89,-14.75,0,*6D
1514584937.32,23181,5.44,72108.5,-14.03,-14.89,-14.75,0,*6C
1514584938.57,23182,5.44,72108.3,-14.03,-14.79,-14.75,0,*60
1514584939.84,23183,5.44,72108.5,-14.03,-14.75,-14.79,0,*61
1514584941.1,23184,5.44,72110.0,-14.01,-14.75,-14.69,0,*65
1514584942.36,23185,5.44,72106.8,-14.03,-14.79,-14.79,0,*6B
1514584943.62,23186,5.44,72106.8,-14.03,-14.75,-14.75,0,*68
1514584944.88,23187,5.44,72110.5,-14.03,-14.79,-14.75,0,*65
1514584946.14,23188,5.44,72110.0,-14.01,-14.69,-14.75,0,*69
1514584947.43,23189,5.44,72108.3,-14.01,-14.75,-14.75,0,*65
1514584948.71,23190,5.44,72110.8,-14.01,-14.75,-14.75,0,*6D
1514584949.98,23191,5.44,72110.8,-14.03,-14.75,-14.79,0,*62
1514584951.24,23192,5.44,72110.0,-14.03,-14.79,-14.75,0,*61
1514584952.49,23193,5.44,72110.3,-14.03,-14.79,-14.75,0,*60
1514584953.78,23194,5.44,72104.5,-14.01,-14.75,-14.75,0,*69
1514584955.05,23195,5.44,72106.5,-14.03,-14.79,-14.79,0,*6A
1514584956.31,23196,5.44,72108.8,-14.01,-14.69,-14.79,0,*6A
1514584957.54,23197,5.44,72108.8,-14.03,-14.89,-14.75,0,*6B
1514584958.8,23198,5.44,72108.5,-14.03,-14.75,-14.75,0,*67
1514584960.04,23199,5.44,72108.3,-14.03,-14.89,-14.79,0,*69
1514584961.3,23200,5.44,72108.8,-14.03,-14.79,-14.75,0,*69
1514584962.56,23201,5.44,72108.8,-14.03,-14.79,-14.75,0,*68
1514584963.82,23202,5.44,72108.0,-14.03,-14.75,-14.75,0,*67
1514584965.08,23203,5.44,72106.8,-14.03,-14.75,-14.75,0,*66
1514584966.34,23204,5.44,72106.8,-14.03,-14.79,-14.75,0,*6D
1514584967.6,23205,5.44,72108.3,-14.03,-14.75,-14.79,0,*6C
1514584968.86,23206,5.44,72108.8,-14.03,-14.79,-14.79,0,*63
1514584970.12,23207,5.44,72106.8,-14.03,-14.79,-14.75,0,*6E
1514584971.36,23208,5.44,72108.8,-14.03,-14.89,-14.79,0,*62
1514584972.63,23209,5.44,72114.0,-14.05,-14.89,-14.79,0,*65
1514584973.92,23210,5.44,72108.0,-14.05,-14.75,-14.79,0,*6E
1514584975.22,23211,5.44,72110.3,-14.05,-14.79,-14.79,0,*63
1514584976.47,23212,5.44,72106.0,-14.03,-14.75,-14.75,0,*66
1514584977.72,23213,5.44,72104.8,-14.03,-14.79,-14.65,0,*6A
1514584978.98,23214,5.44,72106.3,-14.03,-14.79,-14.79,0,*60
1514584980.24,23215,5.44,72106.0,-14.03,-14.75,-14.79,0,*6D
1514584981.5,23216,5.44,72108.8,-14.03,-14.75,-14.79,0,*6E
1514584982.8,23217,5.44,72106.8,-14.05,-14.75,-14.79,0,*69
1514584984.08,23218,5.44,72104.3,-14.05,-14.79,-14.75,0,*66
1514584985.37,23219,5.44,72108.3,-14.05,-14.79,-14.75,0,*67
1514584986.66,23220,5.44,72108.3,-14.05,-14.75,-14.75,0,*61
1514584987.95,23221,5.44,72104.8,-14.05,-14.75,-14.75,0,*60
1514584989.25,23222,5.44,72106.8,-14.05,-14.79,-14.79,0,*63
1514584990.54,23223,5.44,72106.3,-14.05,-14.79,-14.75,0,*6E
1514584991.83,23224,5.44,72104.0,-14.05,-14.79,-14.75,0,*69
1514584993.12,23225,5.44,72104.3,-14.05,-14.79,-14.75,0,*68
1514584994.41,23226,5.44,72106.3,-14.05,-14.79,-14.75,0,*6B
1514584995.68,23227,5.44,72106.3,-14.05,-14.79,-14.65,0,*6B
1514584996.94,23228,5.44,72106.5,-14.03,-14.79,-14.75,0,*63
1514584998.23,23229,5.44,72106.0,-14.05,-14.79,-14.79,0,*68
1514584999.52,23230,5.44,72106.3,-14.05,-14.75,-14.79,0,*6C
1514585000.82,23231,5.44,72104.5,-14.05,-14.79,-14.79,0,*61
1514585002.11,23232,5.44,72106.3,-14.05,-14.75,-14.79,0,*6E
1514585003.4,23233,5.44,72106.0,-14.05,-14.75,-14.75,0,*63
1514585004.69,23234,5.44,72110.3,-14.05,-14.75,-14.75,0,*64
1514585005.96,23235,5.44,72104.0,-14.05,-14.79,-14.89,0,*6A
1514585007.25,23236,5.44,72104.8,-14.05,-14.75,-14.75,0,*66
1514585008.54,23237,5.44,72108.3,-14.05,-14.79,-14.79,0,*67
1514585009.83,23238,5.44,72108.0,-14.05,-14.79,-14.75,0,*64
1514585011.12,23239,5.44,72108.5,-14.05,-14.79,-14.79,0,*69
1514585012.39,23240,5.44,72110.8,-14.05,-14.89,-14.79,0,*68
1514585013.68,23241,5.44,72108.5,-14.05,-14.79,-14.75,0,*6A
1514585014.98,23242,5.44,72106.3,-14.05,-14.75,-14.79,0,*69
1514585016.27,23243,5.44,72110.5,-14.05,-14.75,-14.79,0,*68
1514585017.56,23244,5.44,72110.5,-14.05,-14.79,-14.79,0,*63
1514585018.85,23245,5.44,72108.5,-14.05,-14.75,-14.75,0,*62
1514585020.12,23246,5.44,72114.0,-14.05,-14.89,-14.75,0,*62
1514585021.41,23247,5.44,72106.3,-14.05,-14.75,-14.75,0,*60
1514585022.7,23248,5.44,72110.0,-14.05,-14.79,-14.75,0,*63
1514585023.99,23249,5.44,72108.5,-14.05,-14.75,-14.75,0,*6E
1514585025.28,23250,5.44,72110.0,-14.05,-14.75,-14.79,0,*6A
1514585026.57,23251,5.44,72108.8,-14.05,-14.75,-14.75,0,*67
1514585027.86,23252,5.44,72110.0,-14.05,-14.79,-14.79,0,*64
1514585029.16,23253,5.44,72112.3,-14.05,-14.79,-14.79,0,*65
1514585030.45,23254,5.44,72110.8,-14.05,-14.75,-14.75,0,*62
1514585031.74,23255,5.44,72114.5,-14.05,-14.79,-14.75,0,*6F
1514585033.03,23256,5.38,72110.0,-14.05,-14.79,-14.75,0,*6C
1514585034.32,23257,5.44,72114.3,-14.05,-14.79,-14.75,0,*6D
1514585035.58,23258,5.44,72112.0,-14.05,-14.75,-14.65,0,*6F
1514585036.88,23259,5.44,72112.5,-14.05,-14.79,-14.75,0,*63
1514585038.16,23260,5.44,72112.5,-14.05,-14.75,-14.75,0,*65
1514585039.45,23261,5.44,72110.8,-14.05,-14.75,-14.75,0,*64
1514585040.75,23262,5.44,72112.5,-14.05,-14.79,-14.79,0,*67
1514585042.02,23263,5.44,72108.3,-14.05,-14.89,-14.79,0,*69
1514585043.31,23264,5.44,72110.0,-14.05,-14.75,-14.79,0,*6D
1514585044.6,23265,5.44,72110.0,-14.05,-14.79,-14.75,0,*6C
1514585045.89,23266,5.44,72112.5,-14.05,-14.79,-14.75,0,*6F
1514585047.18,23267,5.44,72110.3,-14.05,-14.75,-14.75,0,*62
1514585048.47,23268,5.44,72112.3,-14.05,-14.79,-14.75,0,*61
1514585049.76,23269,5.44,72112.3,-14.05,-14.79,-14.79,0,*6C
1514585051.05,23270,5.44,72112.5,-14.05,-14.79,-14.75,0,*68
1514585052.34,23271,5.44,72114.0,-14.05,-14.75,-14.75,0,*65
1514585053.63,23272,5.44,72110.0,-14.05,-14.75,-14.75,0,*66
1514585054.92,23273,5.44,72108.5,-14.05,-14.79,-14.75,0,*6B
1514585056.21,23274,5.44,72108.8,-14.05,-14.79,-14.79,0,*60
1514585057.51,23275,5.44,72110.3,-14.05,-14.79,-14.79,0,*61
1514585058.8,23276,5.44,72108.8,-14.05,-14.75,-14.75,0,*62
1514585060.09,23277,5.44,72108.0,-14.05,-14.79,-14.79,0,*63
1514585061.38,23278,5.44,72108.0,-14.05,-14.79,-14.75,0,*60
1514585062.65,23279,5.44,72112.0,-14.05,-14.75,-14.89,0,*6E
1514585063.94,23280,5.44,72110.5,-14.05,-14.75,-14.79,0,*67
1514585065.21,23281,5.44,72110.5,-14.05,-14.79,-14.89,0,*65
1514585066.5,23282,5.44,72112.3,-14.05,-14.79,-14.75,0,*65
1514585067.8,23283,5.44,72114.3,-14.05,-14.79,-14.79,0,*68
1514585069.09,23284,5.44,72108.5,-14.05,-14.79,-14.79,0,*6F
1514585070.38,23285,5.44,72110.3,-14.05,-14.79,-14.75,0,*62
1514585071.67,23286,5.44,72108.8,-14.05,-14.79,-14.79,0,*6D
1514585072.97,23287,5.44,72108.8,-14.05,-14.79,-14.75,0,*60
1514585074.26,23288,5.44,72110.3,-14.05,-14.79,-14.75,0,*6F
1514585075.55,23289,5.44,72108.3,-14.05,-14.79,-14.75,0,*6E
1514585076.84,23290,5.44,72108.3,-14.05,-14.79,-14.75,0,*66
1514585078.13,23291,5.44,72106.8,-14.05,-14.79,-14.75,0,*67
1514585079.43,23292,5.44,72106.8,-14.09,-14.83,-14.83,0,*64
1514585080.7,23293,5.44,72106.8,-14.05,-14.79,-14.65,0,*64
1514585081.99,23294,5.44,72104.8,-14.05,-14.75,-14.75,0,*6E
1514585083.27,23295,5.44,72112.0,-14.05,-14.75,-14.75,0,*6F
1514585084.57,23296,5.44,72108.8,-14.05,-14.79,-14.79,0,*6C
1514585085.86,23297,5.44,72110.3,-14.05,-14.75,-14.79,0,*61
1514585087.15,23298,5.44,72110.0,-14.05,-14.75,-14.75,0,*62
1514585088.44,23299,5.44,72108.0,-14.05,-14.79,-14.79,0,*63
1514585089.73,23300,5.38,72106.8,-14.05,-14.79,-14.75,0,*6E
1514585091.02,23301,5.44,72106.0,-14.05,-14.79,-14.75,0,*6F
1514585092.31,23302,5.44,72104.8,-14.05,-14.79,-14.75,0,*6C
1514585093.61,23303,5.44,72104.0,-14.05,-14.75,-14.79,0,*6D
1514585094.9,23304,5.44,72106.8,-14.05,-14.79,-14.79,0,*66
1514585096.19,23305,5.44,72104.3,-14.05,-14.75,-14.75,0,*67
1514585097.48,23306,5.38,72106.8,-14.05,-14.79,-14.75,0,*68
1514585098.77,23307,5.44,72110.3,-14.09,-14.79,-14.83,0,*6C
1514585100.07,23308,5.44,72106.5,-14.09,-14.83,-14.79,0,*63
1514585101.37,23309,5.44,72104.8,-14.09,-14.83,-14.79,0,*62
1514585102.67,23310,5.44,72106.0,-14.09,-14.83,-14.79,0,*6A
1514585103.97,23311,5.38,72102.0,-14.09,-14.83,-14.79,0,*6B
1514585105.26,23312,5.44,72102.8,-14.05,-14.75,-14.75,0,*61
1514585106.55,23313,5.44,72102.0,-14.05,-14.79,-14.79,0,*60
1514585107.84,23314,5.38,72100.0,-14.05,-14.75,-14.75,0,*67
1514585109.14,23315,5.44,72102.0,-14.05,-14.79,-14.79,0,*66
1514585110.43,23316,5.44,72102.3,-14.09,-14.83,-14.79,0,*6C
1514585111.72,23317,5.44,72104.5,-14.09,-14.93,-14.83,0,*69
1514585113.0,23318,5.44,72104.0,-14.11,-14.83,-14.79,0,*6B
1514585114.29,23319,5.38,72100.5,-14.05,-14.79,-14.75,0,*66
1514585115.55,23320,5.44,72104.0,-14.05,-14.89,-14.75,0,*63
1514585116.84,23321,5.38,72104.8,-14.05,-14.79,-14.75,0,*6D
1514585118.13,23322,5.44,72104.3,-14.05,-14.79,-14.75,0,*6E
1514585119.43,23323,5.44,72106.5,-14.09,-14.83,-14.83,0,*6F
1514585120.73,23324,5.44,72104.3,-14.09,-14.83,-14.79,0,*6D
1514585122.02,23325,5.44,72110.5,-14.09,-14.79,-14.83,0,*6C
1514585123.32,23326,5.44,72108.0,-14.09,-14.79,-14.79,0,*6A
1514585124.61,23327,5.44,72106.0,-14.09,-14.79,-14.79,0,*6B
1514585125.9,23328,5.44,72112.5,-14.09,-14.79,-14.79,0,*64
1514585127.2,23329,5.44,72104.8,-14.09,-14.79,-14.79,0,*65
1514585128.46,23330,5.44,72108.8,-14.11,-14.79,-14.79,0,*64
1514585129.76,23331,5.44,72108.8,-14.09,-14.79,-14.79,0,*6C
1514585131.05,23332,5.38,72106.0,-14.09,-14.79,-14.79,0,*6F
1514585132.35,23333,5.44,72106.5,-14.09,-14.83,-14.83,0,*6E
1514585133.62,23334,5.44,72106.3,-14.11,-14.79,-14.79,0,*60
1514585134.88,23335,5.44,72106.0,-14.11,-14.79,-14.79,0,*61
1514585136.18,23336,5.38,72106.0,-14.09,-14.79,-14.79,0,*6B
1514585137.44,23337,5.38,72106.5,-14.09,-14.79,-14.69,0,*6B
1514585138.74,23338,5.44,72114.0,-14.09,-14.83,-14.79,0,*60
1514585140.0,23339,5.38,72108.3,-14.09,-14.79,-14.69,0,*65
1514585141.27,23340,5.44,72108.3,-14.11,-14.83,-14.83,0,*63
1514585142.57,23341,5.44,72114.0,-14.09,-14.79,-14.79,0,*6B
1514585143.86,23342,5.44,72108.5,-14.09,-14.83,-14.79,0,*6D
1514585145.16,23343,5.44,72112.0,-14.09,-14.79,-14.79,0,*69
1514585146.46,23344,5.44,72110.0,-14.09,-14.83,-14.79,0,*6B
1514585147.72,23345,5.38,72108.0,-14.11,-14.79,-14.83,0,*63
1514585149.02,23346,5.44,72108.3,-14.09,-14.79,-14.79,0,*6C
1514585150.32,23347,5.44,72110.3,-14.09,-14.83,-14.83,0,*6D
1514585151.59,23348,5.44,72106.0,-14.11,-14.83,-14.83,0,*6B
1514585152.86,23349,5.44,72110.5,-14.11,-14.79,-14.79,0,*6A
1514585154.12,23350,5.38,72104.3,-14.11,-14.79,-14.79,0,*62
1514585155.39,23351,5.44,72108.0,-14.11,-14.79,-14.83,0,*66
1514585156.66,23352,5.38,72106.5,-14.11,-14.79,-14.79,0,*60
1514585157.92,23353,5.44,72108.8,-14.11,-14.79,-14.83,0,*64
1514585159.22,23354,5.38,72106.3,-14.09,-14.79,-14.79,0,*6F
1514585160.48,23355,5.44,72110.3,-14.11,-14.79,-14.79,0,*67
1514585161.78,23356,5.44,72112.3,-14.09,-14.79,-14.79,0,*6D
1514585163.07,23357,5.44,72112.0,-14.09,-14.79,-14.79,0,*6C
1514585164.36,23358,5.38,72110.0,-14.09,-14.79,-14.79,0,*63
1514585165.66,23359,5.38,72112.0,-14.09,-14.83,-14.79,0,*67
1514585166.93,23360,5.44,72114.3,-14.11,-14.79,-14.79,0,*61
1514585168.19,23361,5.38,72106.3,-14.11,-14.79,-14.79,0,*60
1514585169.47,23362,5.44,72112.8,-14.11,-14.83,-14.83,0,*63
1514585170.77,23363,5.38,72110.3,-14.09,-14.83,-14.83,0,*6B
1514585172.04,23364,5.38,72108.3,-14.11,-14.83,-14.83,0,*65
1514585173.33,23365,5.38,72110.8,-14.09,-14.79,-14.79,0,*6D
1514585174.63,23366,5.38,72108.3,-14.09,-14.83,-14.79,0,*6B
1514585175.9,23367,5.44,72108.3,-14.11,-14.79,-14.79,0,*66
1514585177.16,23368,5.38,72106.0,-14.09,-14.79,-14.69,0,*61
1514585178.43,23369,5.38,72110.5,-14.11,-14.79,-14.79,0,*68
1514585179.73,23370,5.44,72112.3,-14.09,-14.83,-14.83,0,*69
1514585180.99,23371,5.38,72106.0,-14.11,-14.79,-14.79,0,*61
1514585182.29,23372,5.38,72108.5,-14.09,-14.83,-14.83,0,*6B
1514585183.57,23373,5.44,72112.5,-14.11,-14.83,-14.83,0,*63
1514585184.83,23374,5.38,72110.3,-14.11,-14.79,-14.83,0,*61
1514585186.12,23375,5.38,72110.8,-14.09,-14.79,-14.79,0,*6C
1514585187.4,23376,5.38,72114.8,-14.11,-14.83,-14.83,0,*66
1514585188.67,23377,5.38,72114.5,-14.11,-14.83,-14.79,0,*62
1514585189.94,23378,5.38,72112.0,-14.11,-14.79,-14.83,0,*6D
1514585191.21,23379,5.38,72114.8,-14.11,-14.83,-14.83,0,*69
1514585192.48,23380,5.38,72110.3,-14.11,-14.79,-14.83,0,*6A
1514585193.74,23381,5.38,72110.5,-14.11,-14.93,-14.93,0,*6E
1514585195.0,23382,5.38,72114.8,-14.11,-14.79,-14.83,0,*68
1514585196.3,23383,5.38,72114.3,-14.09,-14.83,-14.79,0,*60
1514585197.57,23384,5.38,72112.5,-14.11,-14.79,-14.79,0,*6B
1514585198.84,23385,5.38,72112.5,-14.11,-14.79,-14.79,0,*6A
1514585200.14,23386,5.38,72112.3,-14.09,-14.83,-14.83,0,*60
1514585201.43,23387,5.38,72112.3,-14.09,-14.79,-14.79,0,*61
1514585202.69,23388,5.38,72106.5,-14.11,-14.93,-14.79,0,*63
1514585203.95,23389,5.38,72112.3,-14.11,-14.93,-14.79,0,*62
1514585205.23,23390,5.38,72112.3,-14.11,-14.83,-14.83,0,*6E
1514585206.5,23391,5.38,72112.3,-14.11,-14.83,-14.83,0,*6F
1514585207.77,23392,5.38,72110.8,-14.11,-14.79,-14.83,0,*69
1514585209.03,23393,5.38,72112.0,-14.11,-14.93,-14.79,0,*69
1514585210.3,23394,5.38,72108.0,-14.11,-14.83,-14.79,0,*6F
1514585211.57,23395,5.38,72108.3,-14.11,-14.83,-14.83,0,*6B
1514585212.84,23396,5.38,72110.3,-14.11,-14.93,-14.83,0,*69
1514585214.11,23397,5.38,72112.0,-14.11,-14.83,-14.79,0,*6C
1514585215.38,23398,5.38,72110.0,-14.11,-14.83,-14.79,0,*63
1514585216.65,23399,5.38,72108.0,-14.11,-14.93,-14.83,0,*66
1514585217.95,23400,5.38,72108.3,-14.09,-14.83,-14.83,0,*69
1514585219.22,23401,5.38,72110.0,-14.11,-14.83,-14.83,0,*61
1514585220.49,23402,5.44,72114.0,-14.11,-14.83,-14.83,0,*62
1514585221.77,23403,5.38,72110.3,-14.13,-14.83,-14.89,0,*6B
1514585223.04,23404,5.38,72108.0,-14.13,-14.89,-14.97,0,*69
1514585224.29,23405,5.38,72102.8,-14.13,-14.89,-14.89,0,*67
1514585225.59,23406,5.38,72106.5,-14.13,-14.83,-14.83,0,*64
1514585226.87,23407,5.38,72112.0,-14.13,-14.97,-14.83,0,*60
1514585228.12,23408,5.38,72104.5,-14.13,-14.89,-14.89,0,*6A
1514585229.39,23409,5.38,72110.8,-14.13,-14.89,-14.97,0,*64
1514585230.66,23410,5.38,72112.8,-14.13,-14.89,-14.83,0,*69
1514585231.91,23411,5.38,72114.0,-14.13,-14.89,-14.89,0,*62
1514585233.13,23412,5.38,72110.3,-14.15,-14.89,-14.89,0,*67
1514585234.38,23413,5.38,72112.8,-14.13,-14.89,-14.89,0,*60
1514585235.63,23414,5.38,72114.0,-14.13,-14.89,-14.89,0,*67
1514585236.9,23415,5.38,72110.0,-14.11,-14.83,-14.83,0,*64
1514585238.19,23416,5.38,72110.3,-14.13,-14.97,-14.97,0,*65
1514585239.45,23417,5.38,72112.8,-14.13,-15.01,-14.89,0,*65
1514585240.7,23418,5.38,72114.0,-14.13,-14.89,-14.89,0,*6B
1514585241.95,23419,5.38,72110.8,-14.13,-14.89,-14.89,0,*6A
1514585243.17,23420,5.38,72106.3,-14.15,-14.89,-14.89,0,*66
1514585244.46,23421,5.38,72110.8,-14.13,-14.97,-14.97,0,*61
1514585245.72,23422,5.38,72112.3,-14.13,-14.97,-14.89,0,*6D
1514585246.96,23423,5.38,72110.0,-14.15,-14.97,-14.89,0,*6A
1514585248.21,23424,5.38,72110.5,-14.15,-14.89,-14.83,0,*68
1514585249.51,23425,5.38,72108.8,-14.13,-14.83,-14.97,0,*60
1514585250.8,23426,5.38,72110.3,-14.13,-14.97,-14.97,0,*66
1514585252.09,23427,5.38,72110.3,-14.13,-14.97,-14.83,0,*62
1514585253.33,23428,5.38,72108.3,-14.15,-15.01,-14.89,0,*6F
1514585254.57,23429,5.38,72106.5,-14.15,-14.97,-14.89,0,*60
1514585255.85,23430,5.38,72108.3,-14.13,-14.83,-14.89,0,*6B
1514585257.15,23431,5.38,72108.5,-14.13,-14.83,-14.83,0,*60
1514585258.39,23432,5.38,72108.8,-14.15,-14.89,-14.97,0,*6A
1514585259.65,23433,5.38,72110.0,-14.15,-14.83,-14.89,0,*6E
1514585260.91,23434,5.38,72108.8,-14.15,-14.97,-14.83,0,*66
1514585262.17,23435,5.38,72106.8,-14.15,-14.97,-14.97,0,*62
1514585263.44,23436,5.38,72108.0,-14.15,-15.01,-14.97,0,*6F
1514585264.68,23437,5.38,72112.0,-14.15,-14.97,-14.89,0,*6F
1514585265.94,23438,5.44,72112.0,-14.15,-14.97,-14.97,0,*6F
1514585267.17,23439,5.38,72108.3,-14.15,-14.89,-14.89,0,*6E
1514585268.41,23440,5.38,72112.0,-14.13,-14.89,-14.89,0,*66
1514585269.64,23441,5.38,72110.0,-14.15,-14.89,-14.89,0,*61
1514585270.86,23442,5.38,72110.5,-14.15,-14.89,-14.89,0,*62
1514585272.12,23443,5.38,72110.0,-14.15,-14.97,-14.97,0,*63
1514585273.37,23444,5.38,72108.0,-14.15,-14.89,-14.83,0,*6E
1514585274.61,23445,5.38,72108.3,-14.15,-14.97,-14.89,0,*6A
1514585275.9,23446,5.38,72112.5,-14.13,-15.01,-14.97,0,*6E
1514585277.14,23447,5.38,72110.3,-14.15,-15.01,-14.89,0,*66
1514585278.38,23448,5.38,72110.5,-14.15,-14.97,-14.89,0,*67
1514585279.62,23449,5.38,72114.5,-14.15,-14.97,-14.89,0,*66
1514585280.86,23450,5.38,72110.0,-14.15,-14.97,-14.89,0,*6E
1514585282.15,23451,5.38,72114.8,-14.13,-14.97,-14.97,0,*66
1514585283.44,23452,5.38,72112.5,-14.13,-14.97,-14.97,0,*65
1514585284.73,23453,5.38,72112.5,-14.13,-14.97,-14.97,0,*64
1514585286.02,23454,5.38,72114.5,-14.13,-14.97,-14.97,0,*63
1514585287.28,23455,5.38,72114.3,-14.15,-15.01,-14.97,0,*6A
1514585288.53,23456,5.38,72112.0,-14.15,-14.89,-14.97,0,*68
1514585289.77,23457,5.38,72110.8,-14.15,-15.01,-14.89,0,*67
1514585291.01,23458,5.38,72112.0,-14.15,-14.97,-14.89,0,*66
1514585292.26,23459,5.38,72114.8,-14.15,-14.89,-14.83,0,*62
1514585293.53,23460,5.38,72114.5,-14.15,-14.83,-14.97,0,*67
1514585294.8,23461,5.38,72112.5,-14.15,-14.97,-14.97,0,*63
1514585296.05,23462,5.38,72116.3,-14.15,-14.89,-14.97,0,*6F
1514585297.33,23463,5.38,72114.8,-14.17,-15.01,-14.93,0,*69
1514585298.62,23464,5.38,72108.8,-14.17,-15.01,-15.01,0,*64
1514585299.89,23465,5.38,72114.3,-14.17,-15.07,-14.93,0,*69
1514585301.18,23466,5.38,72114.0,-14.17,-15.01,-15.01,0,*66
1514585302.44,23467,5.38,72112.5,-14.15,-14.97,-14.97,0,*65
1514585303.66,23468,5.38,72114.8,-14.15,-14.89,-14.89,0,*6A
1514585304.93,23469,5.38,72112.3,-14.17,-15.07,-15.01,0,*6F
1514585306.22,23470,5.38,72112.8,-14.17,-15.01,-15.01,0,*61
1514585307.5,23471,5.38,72112.0,-14.17,-15.01,-15.01,0,*60